Regional Weather Roundup
Issued by NWS Upton, NY

Current Version | Previous Version | Text Only | Print | Product List | Glossary On
Versions: 1 2 3 4 5 6 7 8 9 10 11 12 13 14 15 16 17 18 19 20 21 22 23 24 25 26 27 28 29 30 31 32 33 34 35 36 37 38 39 40 41 42 43 44 45 46 47 48 49 50
364 ASUS41 KOKX 220308 RWROKX REGIONAL WEATHER ROUNDUP NATIONAL WEATHER SERVICE NEW YORK NY 1100 PM EDT THU SEP 21 2017 NOTE: "FAIR" INDICATES FEW OR NO CLOUDS BELOW 12,000 FEET WITH NO SIGNIFICANT WEATHER AND/OR OBSTRUCTIONS TO VISIBILITY. NYZ071-072-176-178-NJZ106-104-220400- NEW YORK CITY METRO AREA CITY SKY/WX TMP DP RH WIND PRES REMARKS Central Park CLOUDY 74 63 68 VRB5 30.05S Bronx Bot Gard N/A N/A N/A N/A CALM 30.03R LaGuardia APRT CLOUDY 73 65 75 NE8 30.01F Kennedy INTL CLOUDY 73 60 63 N9 30.02S Breezy Point N/A 72 N/A N/A NE8 N/A Newark/Liberty MOCLDY 74 61 63 N9 30.02S Teterboro CLOUDY 72 62 71 N5 30.01S $$ NYZ177-179-078>081-220400- LONG ISLAND NEW YORK CITY SKY/WX TMP DP RH WIND PRES REMARKS Jones Beach N/A 72 N/A N/A N13 N/A Matinecock PT N/A 72 N/A N/A NE12 N/A Farmingdale CLOUDY 70 55 59 N13 30.00F MacArthur/ISP CLOUDY 70 54 56 N12 30.00S Shirley CLOUDY 72 52 49 N12 30.00S Mt Sinai Harb N/A 70 N/A N/A N18 N/A Westhampton LGT RAIN 69 51 52 N16G25 29.99F East Hampton CLOUDY 68 50 53 N16G25 29.96S Montauk N/A 69 54 58 N16G30 29.95F $$ NYZ052-065-067-220400- HUDSON VALLEY CITY SKY/WX TMP DP RH WIND PRES REMARKS White Plains CLOUDY 68 61 78 N6 30.03S Larchmont Harb N/A 72 N/A N/A N12 N/A Croton On Huds N/A 70 N/A N/A CALM N/A Newburgh CLEAR 70 63 78 VRB6 30.07S Montgomery CLOUDY 63 61 93 CALM 30.06R Poughkeepsie CLOUDY 68 61 78 N7 30.04S Albany CLOUDY 68 55 63 N7 30.10R $$ NJZ001-105-106-008-010-013-015-019>022-104-220400- NEW JERSEY CITY SKY/WX TMP DP RH WIND PRES REMARKS Newark/Liberty MOCLDY 74 61 63 N9 30.02S Teterboro CLOUDY 72 62 71 N5 30.01S Caldwell CLOUDY 69 63 81 CALM 30.04S Somerville NOT AVBL Linden FAIR 74 59 58 N5 30.02S Perth Amboy N/A 73 N/A N/A N6 N/A Sussex CLOUDY 62 62 100 CALM 30.07R Andover N/A 63 62 97 CALM 30.07R Trenton MOCLDY 70 63 78 N6 30.03S Millville MOCLDY 71 69 93 CALM 30.02S Atlantic City CLOUDY 71 67 87 N3 30.02S Wrightstown CLOUDY 69 63 80 W5 30.00S Toms River PTCLDY 67 64 90 CALM 30.02F Belmar CLOUDY 66 62 87 NW3 30.03S $$ PAZ047>061-062-071-220400- EASTERN PENNSYLVANIA CITY SKY/WX TMP DP RH WIND PRES REMARKS Philadelphia MOCLDY 74 62 66 E6 30.03S Allentown PTCLDY 71 63 75 NE3 30.06R Scranton CLOUDY 66 62 87 E5 30.09S $$ CTZ002-004>006-009-010-012-RIZ004-006-007-MAZ004-011-015-220400- SOUTHERN NEW ENGLAND IN CT CITY SKY/WX TMP DP RH WIND PRES REMARKS Bradley INTL CLOUDY 67 50 54 N14G22 30.05S Hartford MOCLDY 68 52 56 N9 30.03F Danbury CLOUDY 70 56 61 N8 30.06R Wtrbury/Oxford CLOUDY 66 51 58 N10 30.05S Norwalk Harbor N/A 70 N/A N/A N9 N/A Bridgeport CLOUDY 71 52 50 N13 30.01F Meriden CLOUDY 68 51 54 N13G21 30.03S New Haven CLOUDY 69 51 52 N13 30.01F Chester FAIR 68 50 52 N12G20 30.01S Groton MOCLDY 69 49 48 N15G31 29.95F Wilimantic CLOUDY 68 50 52 N16G22 30.02S IN RI CITY SKY/WX TMP DP RH WIND PRES REMARKS Providence CLOUDY 67 53 61 NE26G39 29.98F Block Island CLOUDY 66 53 63 N26G37 29.93F Westerly CLOUDY 69 51 52 N14G26 29.95F IN MA CITY SKY/WX TMP DP RH WIND PRES REMARKS Boston CLOUDY 66 53 63 NE21G30 30.03F Worcester CLOUDY 63 47 55 N14 30.06F Westfield CLOUDY 65 53 65 N7 30.06S Provincetown RAIN 61 56 83 NE28G36 29.93F Nantucket CLOUDY 60 60 100 N38G51 29.79S $$ ANZ330-335-338-340-345-350-353-355-220400- COASTAL MARINE OBSERVATIONS STATION/POSITION TIME SKY/WX TEMP WIND PRES VSBY WAVE AIR SEA DIR/SP/G HT/PER (UTC) (F) (DEG/KT/KT) (MB) (MI) (FT/S) NY HARB ENTRANCE 0150 73 70 10/ 10/ 12 1015.1 4/10 20 S FIRE ISLAND 0150 71 67 10/ 14/ 16 1015.3 8/11 GREAT SOUTH BAY 0215 72 71 20/ 14/ 19 N/A 23 SSW MONTAUK P 0150 68 65 1013.4 9/10 15 E BARNEGAT LI 0230 69 N/A 6/11 HUDSON CANYON 0150 70 69 360/ 21/ 27 1012.8 9/ 9 KINGS POINT 0230 72 71 70/ 5/ 8 1017.1 EXECUTION ROCKS 0245 73 30/ 12/ 16 N/A WESTERN LI SOUND NOT AVBL CENTRAL LI SOUND 0230 71 10/ 16/ 19 N/A 2 EASTERN LI SOUND NOT AVBL ROBBINS REEF 0230 75 360/ 12/ 14 1016.9 $$ >>>>>>>>>>>>>>>>>>>>>>>>>>>> KEY <<<<<<<<<<<<<<<<<<<<<<<<<<< > < > SKY/WX - Sky Condition/Present Weather < > TMP - Temperature in Fahrenheit < > DP - Dew Point in Fahrenheit < > RH - Relative Humidity in Percent < > WIND - Direction (from) and Speed in MPH < > PRES - Mean Sea Level Pressure (inches of Hg) < > WCI - Wind Chill Index < > VSB - VISIBILITY IN MILES < > HX - HEAT INDEX < > TC - TEMPERATURE IN CELSIUS < > VRB - VARIABLE WIND DIRECTION < > < >>>>>>>>>>>>>>>>>>>>>>>>>>>> KEY <<<<<<<<<<<<<<<<<<<<<<<<<<<

USA.gov is the U.S. government's official web portal to all federal, state and local government web resources and services.